Flag for Canada Weather past 2 weeks in Halifax, Nova Scotia, Canada

Now
36 °F

Low clouds.


Feels Like: 27 °F
Forecast: 28 / 38 °F
Wind: 12 mph from North

Location: Halifax International Airport

Current Time: Mar 27, 2015 at 11:05:13 PM

Latest Report: Mar 27, 2015 at 10:00 PM


Visibility: 8 mi

Pressure: 29.67 "Hg

Humidity: 93%

Dew point: 34 °F

Location of HalifaxLocation

Historic Weather in Halifax — Graph

°F

Halifax temperature yesterday

Maximum temperature yesterday: 39 °F (at 3:00 PM)
Minimum temperature yesterday: 25 °F (at 1:00 AM)
Average temperature yesterday: 34 °F

Past Weeks' High & Low Weather Summary

 TemperatureHumidityPressure
High39 °F (Mar 25, 3:00 PM)100% (Mar 15, 4:00 AM)30.34 "Hg (Mar 15, 4:00 AM)
Low7 °F (Mar 13, 8:00 AM)21% (Mar 14, 4:00 PM)29.02 "Hg (Mar 18, 6:00 AM)
Average24 °F75%29.82 "Hg
* Reported Mar 12 10:00 PM — Mar 27 10:00 PM, Halifax, Weather by CustomWeather, © 2015

Note: Actual official high and low records may vary slightly from our data, if they occured in-between our weather recording intervals... More about our weather records

Advertising

Halifax weather history for previous 24 hours

 ConditionsComfort  
Time TempWeatherWind HumidityBarometerVisibility
10:00 PM
Fri, Mar 27
36 °FLow clouds.12 mph93%29.67 "Hg8 mi
9:00 PM36 °FMostly cloudy.8 mph93%29.67 "Hg10 mi
8:00 PM36 °FFog.12 mph100%29.65 "Hg2 mi
7:00 PM37 °FFog.8 mph93%29.65 "Hg1 mi
6:48 PM37 °FFog.9 mph93%29.65 "Hg1 mi
6:00 PM37 °FSprinkles. Fog.7 mph93%29.62 "Hg4 mi
5:00 PM37 °FSprinkles. Fog.5 mph93%29.62 "Hg4 mi
4:00 PM37 °FFog.7 mph100%29.62 "Hg4 mi
3:00 PM37 °FSprinkles. Fog.8 mph93%29.60 "Hg3 mi
2:00 PM37 °FSprinkles. Fog.8 mph100%29.62 "Hg2 mi
1:00 PM37 °FSprinkles. Fog.9 mph100%29.61 "Hg1 mi
12:00 PM37 °FSprinkles. Fog.9 mph93%29.61 "Hg4 mi
11:00 AM36 °FSprinkles. Fog.8 mph100%29.63 "Hg1 mi
10:00 AM36 °FSprinkles. Fog.10 mph100%29.61 "Hg1 mi
9:00 AM36 °FSprinkles. Fog.10 mph93%29.60 "Hg0 mi
8:45 AM36 °FDense fog.9 mph100%29.61 "Hg1 mi
8:00 AM36 °FSprinkles. Overcast.6 mph100%29.59 "Hg8 mi
7:00 AM36 °FSprinkles. Fog.5 mph93%29.61 "Hg1 mi
6:00 AM36 °FSprinkles. Fog.8 mph100%29.59 "Hg1 mi
5:00 AM36 °FSprinkles. Fog.7 mph100%29.60 "Hg1 mi
4:00 AM37 °FSprinkles. Fog.3 mph93%29.59 "Hg1 mi
3:00 AM36 °FSprinkles. Fog.5 mph100%29.63 "Hg1 mi
2:00 AM36 °FSprinkles. Fog.3 mph100%29.63 "Hg1 mi
1:52 AM36 °FSprinkles. Fog.6 mph100%29.63 "Hg1 mi
1:00 AM37 °FSprinkles. Fog.6 mph100%29.65 "Hg1 mi
12:00 AM37 °FDrizzle. Fog.7 mph100%29.66 "Hg1 mi
11:00 PM
Thu, Mar 26
37 °FLight rain. Fog.8 mph93%29.68 "Hg1 mi
Weather by CustomWeather, © 2015

See weather overviewHow to use our weather pages